TimeEST,TemperatureF,Dew PointF,Humidity,Sea Level PressureIn,VisibilityMPH,Wind Direction,Wind SpeedMPH,Gust SpeedMPH,PrecipitationIn,Events,Conditions,WindDirDegrees,DateUTC
12:54 AM,34.0,19.0,54,30.29,10.0,WNW,15.0,-,N/A,,Clear,290,2013-01-05 05:54:00
1:54 AM,35.1,18.0,50,30.29,10.0,WNW,10.4,19.6,N/A,,Clear,290,2013-01-05 06:54:00
2:54 AM,33.1,18.0,54,30.32,10.0,West,9.2,-,N/A,,Clear,280,2013-01-05 07:54:00
3:54 AM,35.1,18.0,50,30.33,10.0,WNW,15.0,21.9,N/A,,Clear,300,2013-01-05 08:54:00
4:54 AM,35.1,18.0,50,30.34,10.0,WNW,11.5,18.4,N/A,,Clear,300,2013-01-05 09:54:00
5:54 AM,32.0,17.1,54,30.35,10.0,Calm,Calm,-,N/A,,Clear,0,2013-01-05 10:54:00
6:54 AM,30.9,19.0,61,30.38,10.0,West,9.2,-,N/A,,Clear,280,2013-01-05 11:54:00
7:54 AM,30.9,19.0,61,30.39,10.0,West,5.8,-,N/A,,Clear,280,2013-01-05 12:54:00
8:54 AM,34.0,19.9,56,30.41,10.0,West,9.2,-,N/A,,Clear,280,2013-01-05 13:54:00
9:54 AM,37.9,19.9,48,30.42,10.0,West,9.2,-,N/A,,Clear,260,2013-01-05 14:54:00
10:54 AM,43.0,17.1,35,30.40,10.0,NNW,9.2,-,N/A,,Clear,340,2013-01-05 15:54:00
11:54 AM,45.0,18.0,34,30.37,10.0,West,8.1,-,N/A,,Clear,270,2013-01-05 16:54:00
12:54 PM,46.0,18.0,33,30.32,10.0,West,4.6,-,N/A,,Clear,270,2013-01-05 17:54:00
1:54 PM,48.0,17.1,29,30.30,10.0,Calm,Calm,-,N/A,,Clear,0,2013-01-05 18:54:00
2:54 PM,48.9,17.1,28,30.28,10.0,Calm,Calm,-,N/A,,Clear,0,2013-01-05 19:54:00
3:54 PM,48.9,17.1,28,30.28,10.0,Calm,Calm,-,N/A,,Clear,0,2013-01-05 20:54:00
4:54 PM,48.0,16.0,28,30.26,10.0,Calm,Calm,-,N/A,,Clear,0,2013-01-05 21:54:00
5:54 PM,46.0,17.1,31,30.27,10.0,ESE,5.8,-,N/A,,Partly Cloudy,120,2013-01-05 22:54:00
6:54 PM,44.1,19.0,37,30.28,10.0,SE,4.6,-,N/A,,Partly Cloudy,130,2013-01-05 23:54:00
7:54 PM,45.0,19.0,36,30.26,10.0,ESE,6.9,-,N/A,,Overcast,110,2013-01-06 00:54:00
8:54 PM,44.1,23.0,43,30.26,10.0,Calm,Calm,-,0.00,Rain,Light Rain,0,2013-01-06 01:54:00
9:54 PM,42.1,30.0,62,30.25,10.0,West,3.5,-,0.00,,Overcast,260,2013-01-06 02:54:00
10:54 PM,41.0,28.0,60,30.24,10.0,Calm,Calm,-,0.00,,Mostly Cloudy,0,2013-01-06 03:54:00
11:54 PM,41.0,30.9,67,30.23,10.0,Calm,Calm,-,0.00,Rain,Light Rain,0,2013-01-06 04:54:00